Time,TemperatureF,DewpointF,PressureIn,WindDirection,WindDirectionDegrees,WindSpeedMPH,WindSpeedGustMPH,Humidity,HourlyPrecipIn,Conditions,Clouds,dailyrainin,SoftwareType,DateUTC
2013-07-08 01:25:00,72.2,70.0,29.27,South,171,1.0,2.0,94,0.00,,,0.00,weatherlink.com 1.10,2013-07-08 06:25:00,
2013-07-08 01:27:00,72.3,71.0,29.27,South,175,2.0,3.0,94,0.00,,,0.00,weatherlink.com 1.10,2013-07-08 06:27:00,
2013-07-08 01:42:00,72.5,71.0,29.26,South,169,0.0,4.0,94,0.00,,,0.00,weatherlink.com 1.10,2013-07-08 06:42:00,
2013-07-08 01:57:00,72.8,71.0,29.26,SW,215,2.0,3.0,93,0.00,,,0.00,weatherlink.com 1.10,2013-07-08 06:57:00,
2013-07-08 02:12:00,73.0,71.0,29.26,SW,220,0.0,2.0,93,0.00,,,0.00,weatherlink.com 1.10,2013-07-08 07:12:00,
2013-07-08 02:27:00,72.8,70.0,29.26,SSW,212,0.0,2.0,92,0.00,,,0.00,weatherlink.com 1.10,2013-07-08 07:27:00,
2013-07-08 02:42:00,72.7,70.0,29.26,WSW,237,0.0,2.0,92,0.00,,,0.00,weatherlink.com 1.10,2013-07-08 07:42:00,
2013-07-08 02:57:00,72.6,70.0,29.26,SSE,163,1.0,3.0,92,0.00,,,0.00,weatherlink.com 1.10,2013-07-08 07:57:00,
2013-07-08 03:12:00,72.5,70.0,29.26,South,180,1.0,3.0,92,0.00,,,0.00,weatherlink.com 1.10,2013-07-08 08:12:00,
2013-07-08 03:27:00,72.3,70.0,29.26,South,180,0.0,3.0,92,0.00,,,0.00,weatherlink.com 1.10,2013-07-08 08:27:00,
2013-07-08 03:42:00,72.0,70.0,29.25,South,180,1.0,3.0,92,0.00,,,0.00,weatherlink.com 1.10,2013-07-08 08:42:00,
2013-07-08 03:57:00,71.5,69.0,29.25,South,180,0.0,2.0,93,0.00,,,0.00,weatherlink.com 1.10,2013-07-08 08:57:00,
2013-07-08 04:12:00,71.1,69.0,29.25,South,180,1.0,3.0,93,0.00,,,0.00,weatherlink.com 1.10,2013-07-08 09:12:00,
2013-07-08 04:27:00,70.8,69.0,29.25,South,180,1.0,2.0,94,0.00,,,0.00,weatherlink.com 1.10,2013-07-08 09:27:00,
2013-07-08 04:42:00,70.4,69.0,29.25,South,180,0.0,1.0,94,0.00,,,0.00,weatherlink.com 1.10,2013-07-08 09:42:00,
2013-07-08 04:57:00,70.3,69.0,29.25,South,180,2.0,3.0,95,0.00,,,0.00,weatherlink.com 1.10,2013-07-08 09:57:00,
2013-07-08 05:12:00,70.1,69.0,29.25,South,180,2.0,3.0,95,0.00,,,0.00,weatherlink.com 1.10,2013-07-08 10:12:00,
2013-07-08 05:27:00,70.1,69.0,29.26,South,180,0.0,1.0,95,0.00,,,0.00,weatherlink.com 1.10,2013-07-08 10:27:00,
2013-07-08 05:42:00,70.3,69.0,29.26,South,180,1.0,2.0,95,0.00,,,0.00,weatherlink.com 1.10,2013-07-08 10:42:00,
2013-07-08 05:57:00,70.8,69.0,29.26,South,188,2.0,2.0,95,0.00,,,0.00,weatherlink.com 1.10,2013-07-08 10:57:00,
2013-07-08 06:12:00,71.2,70.0,29.26,South,188,0.0,3.0,95,0.00,,,0.00,weatherlink.com 1.10,2013-07-08 11:12:00,
2013-07-08 06:27:00,71.5,70.0,29.27,South,188,1.0,3.0,95,0.00,,,0.00,weatherlink.com 1.10,2013-07-08 11:27:00,
2013-07-08 06:42:00,72.0,70.0,29.27,South,182,2.0,3.0,94,0.00,,,0.00,weatherlink.com 1.10,2013-07-08 11:42:00,
2013-07-08 06:57:00,72.4,70.0,29.27,South,182,2.0,3.0,93,0.00,,,0.00,weatherlink.com 1.10,2013-07-08 11:57:00,
2013-07-08 07:12:00,72.5,70.0,29.27,South,169,1.0,3.0,93,0.00,,,0.00,weatherlink.com 1.10,2013-07-08 12:12:00,
2013-07-08 13:13:00,69.3,68.0,29.30,South,174,2.0,5.0,96,0.04,,,0.08,weatherlink.com 1.10,2013-07-08 18:13:00,
2013-07-08 13:28:00,68.3,68.0,29.28,ESE,123,2.0,2.0,97,0.05,,,0.10,weatherlink.com 1.10,2013-07-08 18:28:00,
2013-07-08 13:43:00,68.0,68.0,29.25,South,171,1.0,5.0,98,0.06,,,0.12,weatherlink.com 1.10,2013-07-08 18:43:00,
2013-07-08 14:13:00,71.1,71.0,29.25,South,172,2.0,3.0,99,0.09,,,0.17,weatherlink.com 1.10,2013-07-08 19:13:00,
2013-07-08 14:28:00,74.7,72.0,29.24,SSE,159,6.0,7.0,91,0.09,,,0.19,weatherlink.com 1.10,2013-07-08 19:28:00,
2013-07-08 14:58:00,78.5,74.0,29.23,South,178,6.0,9.0,85,0.10,,,0.25,weatherlink.com 1.10,2013-07-08 19:58:00,
2013-07-08 15:28:00,80.4,76.0,29.22,South,190,3.0,9.0,86,0.13,,,0.32,weatherlink.com 1.10,2013-07-08 20:28:00,
2013-07-08 15:58:00,81.7,77.0,29.22,South,191,3.0,11.0,84,0.13,,,0.38,weatherlink.com 1.10,2013-07-08 20:58:00,
2013-07-08 16:13:00,82.7,77.0,29.21,South,169,6.0,10.0,82,0.11,,,0.40,weatherlink.com 1.10,2013-07-08 21:13:00,
2013-07-08 16:28:00,82.8,75.0,29.22,South,172,5.0,8.0,77,0.10,,,0.42,weatherlink.com 1.10,2013-07-08 21:28:00,
2013-07-08 16:43:00,84.0,75.0,29.22,SSW,207,2.0,10.0,74,0.09,,,0.44,weatherlink.com 1.10,2013-07-08 21:43:00,
2013-07-08 16:58:00,84.5,75.0,29.22,SSE,160,4.0,7.0,74,0.08,,,0.46,weatherlink.com 1.10,2013-07-08 21:58:00,
2013-07-08 17:13:00,84.4,76.0,29.22,SSW,198,3.0,5.0,75,0.08,,,0.48,weatherlink.com 1.10,2013-07-08 22:13:00,
2013-07-08 17:43:00,84.1,75.0,29.21,SSE,167,1.0,7.0,73,0.08,,,0.52,weatherlink.com 1.10,2013-07-08 22:43:00,
2013-07-08 17:58:00,83.0,75.0,29.21,SSW,211,1.0,7.0,76,0.08,,,0.54,weatherlink.com 1.10,2013-07-08 22:58:00,
2013-07-08 18:28:00,81.9,74.0,29.21,South,188,1.0,3.0,78,0.08,,,0.59,weatherlink.com 1.10,2013-07-08 23:28:00,